Dewpoint
44 45 45 44 45 45 45 40 32 42 47 35 35 33 31 34 28 31 32 31 30 28 29 29 26 21 22 35 34 29 31 34 34 33 36 41 40 39 38 34 34 35 33 34
43 44 44 44 45 43 42 34 33 42 44 29 32 27 28 34 31 32 35 29 28 26 24 26 26 29 35 36 36 32 29 30 28 30 35 39 37 36 38 37 34 33 34 35
42 42 43 44 44 43 41 37 30 34 37 34 28 22 22 20 34 34 29 34 30 29 33 34 34 34 34 36 36 39 40 32 31 25 29 36 35 37 38 35 32 34 35 36
42 42 43 44 44 43 39 37 31 26 28 29 30 28 23 18 18 22 26 33 29 28 27 29 30 28 31 35 37 37 34 36 34 34 33 34 34 33 32 35 36 33 36 34
43 43 43 44 44 44 38 32 32 30 27 26 26 25 24 22 19 28 28 29 26 33 30 25 24 28 27 28 31 31 35 31 35 33 28 27 30 32 30 34 35 37 35 33
43 43 43 44 44 42 35 37 33 32 25 24 23 23 23 19 23 20 30 30 27 28 32 29 29 32 32 31 29 28 30 33 28 26 26 26 29 31 32 30 31 31 27 28
43 44 43 44 44 41 37 35 30 27 24 23 22 18 17 18 18 23 22 25 27 26 28 21 28 31 32 30 28 30 31 32 31 24 23 22 30 29 31 31 29 28 27 27
43 43 43 43 44 44 40 36 30 32 25 19 19 20 18 17 17 18 18 17 17 19 21 22 29 28 28 26 27 27 31 30 26 22 19 21 18 23 26 28 24 26 29 29
43 43 43 43 43 44 42 36 34 30 27 19 18 18 18 19 20 19 18 21 30 30 24 21 20 19 19 19 19 24 27 32 27 22 20 16 18 20 27 29 29 25 25 26
43 43 42 43 43 42 41 37 38 30 30 22 22 22 20 21 21 20 18 20 24 30 28 23 19 17 20 22 17 24 27 30 26 24 20 17 16 16 24 23 24 25 29 30
44 43 42 43 43 42 42 36 37 30 30 25 26 24 23 22 22 21 22 23 25 27 25 22 22 23 23 27 23 21 24 26 26 25 23 20 19 20 25 25 28 30 29 32
44 43 43 43 43 42 42 39 37 34 33 28 32 29 28 25 25 26 25 24 24 30 27 28 26 23 27 29 25 23 23 24 23 24 23 28 32 30 32 34 33 32 31 31
44 44 43 43 43 43 41 41 40 37 35 31 31 29 31 31 30 30 27 24 25 25 29 32 28 24 24 21 23 27 31 31 29 27 26 24 25 26 30 30 32 32 31 30
44 45 44 43 43 43 43 39 39 37 33 28 26 30 30 31 33 31 31 29 28 31 32 29 26 23 25 24 27 24 32 31 31 31 32 30 29 31 35 34 34 34 33 33
44 45 44 44 44 44 43 41 40 39 32 29 25 29 29 29 31 31 31 31 30 31 29 28 27 26 26 27 27 28 31 29 31 28 27 30 29 35 35 35 33 33 32 33
44 44 45 44 43 44 37 31 36 40 39 34 27 29 26 29 30 29 29 31 32 34 29 27 27 26 29 27 24 28 28 31 32 29 29 33 35 33 32 38 39 34 33 33
44 44 44 44 44 42 34 34 37 40 39 33 28 28 28 27 28 31 31 33 35 35 31 29 26 30 32 30 26 28 29 32 32 32 32 31 31 30 32 34 34 35 33 33
44 44 44 43 41 39 37 41 40 40 36 33 26 24 30 32 30 32 34 31 33 32 31 33 29 29 34 29 27 28 27 26 26 26 29 30 31 31 29 32 33 34 33 34
42 42 41 39 37 36 37 40 39 41 34 27 24 20 21 35 32 34 34 34 28 32 30 29 34 30 28 28 28 28 24 21 21 23 28 27 24 24 29 28 28 28 31 36
40 38 34 32 36 41 39 37 34 32 33 33 26 26 23 30 31 32 32 33 30 27 28 34 30 28 29 28 27 24 26 28 32 32 31 30 30 26 24 25 28 28 26 30
36 34 32 37 39 35 33 28 26 26 24 25 27 26 25 32 23 26 33 29 28 23 27 26 23 25 30 31 33 33 33 33 32 33 34 34 34 32 28 29 32 34 34 36
37 36 37 36 33 30 24 22 24 22 17 25 27 28 27 30 33 30 31 28 27 22 29 27 21 27 29 32 32 32 32 32 32 32 33 33 34 34 33 34 36 36 37 35
38 33 30 28 27 21 20 18 21 22 27 29 32 31 32 34 35 30 28 24 23 29 26 21 23 26 32 32 32 32 32 32 32 31 32 32 32 31 34 33 33 34 33 33
34 29 24 25 23 23 22 21 24 29 30 30 32 33 33 32 28 27 24 26 26 21 18 16 28 31 32 32 32 32 31 30 30 30 28 28 29 29 30 30 32 32 31 31
30 27 22 25 28 30 31 32 32 32 32 32 34 31 31 30 26 25 23 23 18 18 19 28 33 33 32 32 30 31 30 29 30 31 30 29 31 30 30 30 30 30 29 28
31 28 26 28 28 30 30 30 30 31 32 33 31 26 27 26 25 21 19 14 13 22 31 36 34 33 32 31 30 32 32 31 31 31 31 31 30 30 30 28 27 27 28 28
28 28 32 32 30 30 31 31 30 32 33 32 26 23 17 26 22 19 23 24 30 35 36 36 33 33 33 34 32 31 32 31 31 31 30 30 31 30 30 28 28 27 26 25
Lifted_Index
3 3 3 4 4 4 3 3 3 3 2 3 3 3 2 2 2 2 2 2 2 2 1 1 1 0 -0 -0 -0 -0 -0 -0 -0 0 0 0 0 0 0 0 0 0 0 0
3 3 3 3 4 4 3 3 3 3 3 3 3 3 2 2 2 2 2 2 2 1 1 1 1 0 0 -0 -0 -0 -0 -0 -0 0 0 0 1 1 1 0 0 0 0 0
3 3 3 3 3 4 4 3 3 3 3 3 3 3 3 3 3 2 2 2 1 1 1 1 1 1 1 1 0 -0 -0 -0 -0 0 0 0 1 1 1 1 1 1 1 1
3 3 2 2 3 3 3 3 3 4 4 3 3 3 3 3 3 3 3 2 1 1 1 1 1 2 2 2 2 1 0 -0 0 0 1 1 2 2 2 2 2 1 1 1
2 2 2 2 2 2 3 3 4 4 4 3 3 3 3 3 3 3 3 3 2 1 1 1 2 2 3 3 3 3 2 1 1 1 1 1 2 2 2 2 2 1 1 1
2 2 1 1 1 2 2 3 3 3 3 3 3 3 3 3 4 4 4 3 2 2 2 2 2 3 3 3 4 4 3 2 1 1 1 1 1 2 2 2 2 1 1 1
2 2 1 1 1 2 2 2 2 2 2 2 2 2 3 3 4 4 4 4 3 3 3 3 2 2 2 2 3 3 3 2 2 1 1 1 1 1 1 1 1 1 1 1
1 1 1 1 1 2 2 2 2 2 2 2 2 2 2 3 3 4 5 5 4 4 4 3 2 1 1 1 2 2 2 2 2 2 1 1 1 1 1 1 1 1 1 0
1 1 1 1 1 2 2 3 2 2 2 2 2 2 2 2 3 3 4 5 4 4 3 3 2 1 0 1 1 1 1 1 1 1 1 1 2 2 1 1 1 1 0 0
1 1 1 1 1 2 2 3 3 3 2 2 2 2 2 2 2 2 3 3 3 2 2 2 2 1 1 0 0 0 0 0 1 1 1 2 2 2 1 1 1 1 0 0
0 1 1 1 1 2 2 2 3 3 3 3 3 3 2 2 2 2 2 2 2 2 2 2 2 2 1 0 -0 -0 -0 0 0 0 1 1 2 1 1 1 0 0 0 -0
0 0 1 1 1 1 2 2 3 3 3 3 3 3 2 2 2 2 2 2 2 2 2 2 2 2 1 0 -0 -0 -0 -0 -0 -0 0 0 1 1 0 0 -0 0 0 0
-0 0 1 1 1 1 1 2 2 3 3 3 2 2 2 3 2 2 2 2 2 2 2 2 3 3 2 1 1 0 -0 -1 -1 -0 -0 0 0 0 0 0 -0 0 0 0
-0 0 0 1 1 1 1 2 2 2 2 2 2 2 2 3 3 2 2 2 2 1 2 2 3 3 3 3 2 1 -0 -1 -1 -0 -0 -0 0 0 0 0 0 0 0 0
-0 -0 0 0 0 0 1 2 2 2 2 2 2 2 2 2 2 2 2 1 1 1 2 3 3 3 4 3 2 1 0 -0 -0 -0 0 0 0 0 0 0 0 0 1 1
-0 -0 0 0 0 0 1 1 2 2 2 1 2 2 2 2 2 2 1 1 1 1 2 3 3 3 3 3 2 1 0 -0 0 0 0 0 0 1 1 1 1 1 1 1
-0 -0 0 1 1 1 1 1 2 2 2 1 2 2 2 2 2 1 1 1 1 1 2 3 3 3 3 2 2 1 0 0 0 1 1 1 1 1 1 1 1 1 1 1
0 1 1 1 1 1 2 2 3 3 2 2 2 2 2 2 2 1 1 1 2 2 3 3 2 2 2 2 2 1 1 1 1 2 2 1 1 1 1 1 1 1 0 0
1 2 2 3 2 2 2 3 3 3 3 3 3 2 2 2 2 2 2 2 3 3 3 3 2 2 2 2 1 1 2 2 2 2 2 2 2 2 2 2 1 1 1 1
3 3 3 3 3 3 3 3 4 3 3 3 3 3 3 3 3 2 2 2 2 2 3 3 3 2 2 2 2 2 2 2 2 2 2 2 2 3 3 2 2 2 1 1
3 3 3 3 3 3 3 3 3 3 3 3 3 3 3 3 3 2 2 2 2 2 2 3 3 2 2 2 2 2 2 2 2 2 2 2 2 2 2 2 2 2 2 2
3 3 3 2 2 2 2 3 3 3 3 2 2 2 3 3 3 2 2 2 2 2 2 2 2 2 2 2 2 2 1 1 1 2 2 2 2 2 2 2 2 2 2 2
2 2 2 2 1 1 1 1 2 2 2 2 2 2 2 2 3 3 2 2 2 2 2 2 2 2 2 2 1 1 1 1 1 1 2 3 3 2 2 1 1 1 1 1
1 1 1 1 1 1 1 1 1 2 2 2 1 1 1 2 2 3 3 2 2 2 2 1 1 2 1 1 1 1 1 1 1 1 2 2 2 2 2 1 1 1 1 1
1 1 1 1 1 1 1 1 2 2 2 2 1 1 1 2 2 3 2 2 2 2 1 1 1 1 2 2 2 2 2 2 2 1 2 2 2 2 1 1 1 1 1 1
2 2 2 2 2 2 2 2 2 2 2 1 1 1 1 2 2 2 2 2 1 1 1 1 2 2 2 2 2 2 2 2 2 2 3 3 3 2 2 2 2 2 2 2
2 2 2 2 2 2 2 2 2 2 2 1 1 1 2 2 2 2 2 1 1 1 1 2 2 2 2 3 2 2 3 3 3 3 4 4 3 3 3 3 3 3 3 3